Location: Unspecified
(0.0000°N, 1.0000°E)
Time: 06:33:27
(UTC+02:00)

X-37B - Visible Passes

Search period start: 25 September 2020 00:00
Search period end: 05 October 2020 00:00
Orbit: 386 x 387 km, 45.0° (Epoch: 18 September)

Date Brightness Start Highest point End Pass type
(mag) Time Alt. Az. Time Alt. Az. Time Alt. Az.
25 Sep 2.7 21:25:09 10° WSW 21:27:22 26° WNW 21:27:22 26° WNW visible
26 Sep 0.5 20:26:15 10° SW 20:29:25 87° ESE 20:32:32 10° NE visible
27 Sep 3.7 21:06:31 10° WNW 21:07:21 11° NW 21:08:12 10° NNW visible
28 Sep 3.4 06:59:29 10° N 07:01:35 16° NE 07:03:41 10° E visible
30 Sep 1.5 06:39:04 20° NNW 06:40:59 46° NE 06:44:02 10° ESE visible
01 Oct 4.1 05:44:12 12° E 05:44:12 12° E 05:44:33 10° E visible
01 Oct 2.4 07:16:42 10° W 07:18:54 17° SW 07:21:08 10° S visible
02 Oct 2.0 06:21:33 31° S 06:21:33 31° S 06:23:27 10° SSE visible
